[[{"header":{"parameterUnit":"m.s-1","parameterCategory":1,"la1":30.2992,"la2":30.254,"lo1":-89.0895,"lo2":-89.0443,"dy":0.0025,"dx":0.0025,"nx":19,"ny":19,"refTime":"2026-03-30T03:00:00:Z","depth":0,"parameterNumber":2,"parameterNumberName":"U-component_of_WINDS"},"data":[0,0,0,-3.0478,-3.0479,-3.0556,-3.0556,-3.0653,-3.0654,0,0,0,0,0,0,0,0,0,0,0,-3.0453,-3.0453,-3.0477,-3.0479,-3.0556,-3.0557,-3.0653,-3.0654,0,0,0,0,0,0,0,0,0,0,0,-3.0453,-3.0453,-3.0454,-3.048,-3.0556,-3.0557,-3.0653,-3.0596,0,0,0,0,0,0,0,0,0,0,-3.0521,-3.0496,-3.0453,-3.0454,-3.048,-3.0556,-3.0557,-3.0593,-3.0599,-3.0617,0,-3.0632,0,-3.0645,-3.066,-3.0661,0,0,0,-3.0481,-3.0491,-3.0514,-3.0454,-3.0481,-3.0556,-3.0522,-3.0596,-3.0604,-3.0626,-3.0634,-3.0637,-3.0646,-3.0661,-3.0661,-3.0759,-3.076,0,0,-3.0477,-3.0466,-3.0509,-3.0518,-3.0505,-3.0519,-3.0524,-3.0601,-3.0609,-3.0634,-3.064,-3.0648,-3.0662,-3.0662,-3.0759,-3.0759,0,0,0,-3.0463,-3.0463,-3.0483,-3.0514,-3.0528,-3.0522,-3.0527,-3.0606,-3.0613,-3.0641,-3.0649,-3.0662,-3.0663,-3.0759,-3.0759,-3.0766,0,0,0,-3.0461,-3.0455,-3.0481,-3.0476,-3.0526,-3.0568,-3.053,-3.0608,-3.0617,-3.0649,-3.0662,-3.0664,-3.0758,-3.0759,-3.0765,-3.077,0,0,0,-3.0449,-3.0454,-3.0464,-3.0475,-3.0507,-3.0567,-3.0579,-3.061,-3.0622,-3.0661,-3.0664,-3.0758,-3.0759,-3.0764,-3.0769,-3.0792,0,0,0,-3.0432,-3.047,-3.0464,-3.0509,-3.0507,-3.0571,-3.0578,-3.0627,-3.0661,-3.0663,-3.0758,-3.0759,-3.0763,-3.0768,-3.079,-3.0807,-3.0814,0,0,-3.0473,-3.0474,-3.0502,-3.0499,-3.056,-3.056,-3.0623,-3.0665,-3.068,-3.0732,-3.0735,-3.0765,-3.0769,-3.0791,-3.0858,-3.0863,0,0,0,-3.0511,-3.053,-3.0549,-3.0581,-3.0614,-3.0643,-3.0676,-3.0692,-3.0737,-3.0704,-3.0781,-3.0784,-3.0797,-3.0806,-3.081,-3.0822,-3.0763,-3.0763,-3.0763,-3.0551,-3.0568,-3.0614,-3.064,-3.0671,-3.0706,-3.0732,-3.076,-3.0768,-3.0786,-3.0801,-3.0839,-3.0848,-3.0852,-3.0864,-3.0813,-3.0813,-3.0813,-3.0813,-3.0611,-3.064,-3.065,-3.0698,-3.0716,-3.0757,-3.0794,-3.0798,-3.0839,-3.0829,-3.0842,-3.0827,-3.0857,-3.0868,-3.0814,-3.0814,-3.0814,-3.0814,-3.0813,-3.0637,-3.0654,-3.0673,-3.0721,-3.0756,-3.0783,-3.0821,-3.0837,-3.0852,-3.0865,-3.0882,-3.0882,-3.0882,-3.0873,-3.0873,-3.0873,-3.0873,-3.0873,-3.0873,-3.0656,-3.0677,-3.0707,-3.0746,-3.0769,-3.0801,-3.0838,-3.0861,-3.0891,-3.0899,-3.09,-3.0905,-3.0857,-3.0843,-3.0875,-3.0875,-3.0875,-3.0874,-3.0874,-3.0706,-3.0698,-3.0744,-3.0767,-3.0814,-3.0848,-3.0869,-3.0915,-3.0937,-3.0955,-3.096,-3.0922,-3.0924,-3.0921,-3.0909,-3.0956,-3.0956,-3.0956,-3.0956,-3.0727,-3.073,-3.0781,-3.0816,-3.0853,-3.0876,-3.0929,-3.0959,-3.0989,-3.1004,-3.1,-3.0987,-3.0984,-3.0988,-3.0983,-3.0972,-3.1034,-3.1035,-3.1035,-3.0758,-3.0765,-3.0806,-3.0834,-3.0873,-3.0907,-3.0957,-3.0998,-3.1031,-3.1038,-3.1015,-3.1012,-3.0992,-3.0985,-3.0988,-3.098,-3.0962,0,0]},{"header":{"parameterUnit":"m.s-1","parameterCategory":1,"la1":30.2992,"la2":30.254,"lo1":-89.0895,"lo2":-89.0443,"dy":0.0025,"dx":0.0025,"nx":19,"ny":19,"refTime":"2026-03-30T03:00:00:Z","depth":0,"parameterNumber":3,"parameterNumberName":"V-component_of_WINDS"},"data":[0,0,0,4.2181,4.2182,4.2247,4.2247,4.2329,4.233,0,0,0,0,0,0,0,0,0,0,0,4.2161,4.2162,4.2181,4.2182,4.2247,4.2247,4.2329,4.233,0,0,0,0,0,0,0,0,0,0,0,4.2161,4.2162,4.2162,4.2183,4.2247,4.2247,4.2329,4.228,0,0,0,0,0,0,0,0,0,0,4.2218,4.2199,4.2161,4.2162,4.2183,4.2246,4.2247,4.2278,4.2283,4.23,0,4.2313,0,4.2323,4.2335,4.2335,0,0,0,4.2183,4.2194,4.2212,4.2162,4.2184,4.2246,4.2218,4.2281,4.2287,4.2307,4.2315,4.2318,4.2324,4.2336,4.2336,4.2429,4.243,0,0,4.2179,4.2172,4.2208,4.2216,4.2206,4.2216,4.222,4.2285,4.2293,4.2315,4.232,4.2326,4.2336,4.2337,4.2429,4.2429,0,0,0,4.2169,4.217,4.2186,4.2213,4.2225,4.2218,4.2222,4.229,4.2296,4.2321,4.2327,4.2337,4.2338,4.2429,4.2429,4.2444,0,0,0,4.2167,4.2164,4.2185,4.2181,4.2223,4.2258,4.2226,4.2291,4.2299,4.2326,4.2337,4.2338,4.2428,4.2429,4.2443,4.2453,0,0,0,4.2157,4.2163,4.2172,4.2181,4.2208,4.2257,4.2267,4.2293,4.2303,4.2335,4.2339,4.2428,4.2429,4.2442,4.2451,4.2478,0,0,0,4.2145,4.2183,4.2172,4.2217,4.2207,4.2266,4.2266,4.231,4.2339,4.2337,4.2428,4.2429,4.2441,4.245,4.2476,4.25,4.2509,0,0,4.2189,4.2188,4.2215,4.2207,4.2266,4.2256,4.2317,4.2351,4.2359,4.2406,4.2408,4.2444,4.2451,4.2477,4.2557,4.2563,0,0,0,4.2227,4.2246,4.2263,4.2292,4.2318,4.2343,4.2368,4.238,4.242,4.2382,4.2459,4.2464,4.248,4.2492,4.2497,4.2513,4.2434,4.2434,4.2433,4.2279,4.229,4.2336,4.2355,4.2382,4.2409,4.2432,4.2454,4.2455,4.2474,4.2488,4.2535,4.2548,4.2553,4.2568,4.25,4.25,4.25,4.25,4.2347,4.2377,4.2379,4.2425,4.2436,4.2475,4.2502,4.2502,4.2541,4.2524,4.2539,4.2522,4.256,4.2574,4.2501,4.2501,4.2501,4.25,4.25,4.2384,4.2401,4.2416,4.246,4.2492,4.251,4.2547,4.2555,4.2563,4.2577,4.2595,4.2594,4.2597,4.2584,4.2585,4.2585,4.2585,4.2585,4.2585,4.2418,4.2435,4.2465,4.2498,4.2519,4.2547,4.2574,4.2595,4.262,4.2623,4.2623,4.2624,4.2561,4.2546,4.2588,4.2587,4.2587,4.2587,4.2587,4.2486,4.2473,4.252,4.2541,4.2581,4.2614,4.2624,4.2665,4.2683,4.2702,4.27,4.2651,4.2651,4.2646,4.2634,4.2696,4.2696,4.2696,4.2696,4.252,4.252,4.2572,4.2605,4.2638,4.2652,4.2707,4.2729,4.275,4.2762,4.2754,4.2738,4.2733,4.2735,4.2729,4.2718,4.28,4.28,4.28,4.2564,4.2568,4.2613,4.2633,4.2666,4.2694,4.2747,4.2785,4.2805,4.2805,4.2773,4.2768,4.2742,4.2733,4.2733,4.2722,4.2702,0,0]}]]